CAPE
0 0 0 0 0 0 41 329 462 1199 1265 1129 1460 1698 1677 1563 1704 1973 2117 2246 2371 2354 2044 1848 1559 998 961 1019 908 825 712 603 345 501 332 101 232 398 375 409 301 425 92
0 0 0 0 0 0 23 302 411 636 1091 1233 1433 1443 1368 1365 1917 2234 2397 2233 2380 2262 1835 1513 1126 1089 1093 937 815 740 422 396 220 465 43 47 52 66 72 88 298 359 251
0 0 0 0 0 1 121 372 479 472 858 1253 1302 1303 1154 1289 2017 2255 2333 2268 2099 1736 1269 1294 1117 1027 1079 855 645 420 327 420 300 283 116 13 2 10 2 39 109 132 190
7 0 0 0 0 28 252 428 570 490 706 1183 1266 1212 1128 1622 2015 2244 2428 2011 1578 1307 1375 1171 1029 1071 817 663 441 393 389 286 157 237 116 14 4 1 3 4 9 83 15
82 6 0 0 0 98 449 481 510 558 745 1087 1319 1294 1591 1923 1981 2254 1978 1551 1390 1205 931 940 1064 780 484 481 352 411 387 231 163 261 10 7 10 2 12 0 37 52 3
90 53 0 0 31 117 701 573 720 874 1124 1268 1482 1665 1971 1794 1555 1423 1424 1236 1319 1063 1146 1015 772 409 239 183 39 333 350 339 317 153 13 29 4 12 16 17 8 21 1
58 35 44 46 153 482 753 718 922 1337 1629 1754 1949 1907 2052 1547 974 982 1156 1235 1117 1006 912 806 560 295 259 201 0 0 0 13 82 217 52 14 4 10 48 43 21 49 22
81 31 84 98 492 892 866 1171 1647 2088 2209 2121 1937 2036 1992 992 633 672 807 915 639 597 510 590 597 515 550 463 155 108 92 58 52 149 297 92 3 75 66 40 70 14 44
54 70 135 292 1118 1198 1278 1772 2140 2122 2099 2111 2058 1772 1133 397 223 318 203 659 711 732 633 604 578 566 331 124 413 232 266 243 0 0 38 25 7 10 39 47 45 8 10
24 85 179 591 1088 1233 1842 1953 2178 2029 1891 1766 1667 1404 767 335 0 0 196 376 618 514 513 683 169 425 35 0 413 367 320 329 25 10 17 0 1 3 0 51 26 6 17
25 128 49 773 1082 1334 1621 1674 1707 1522 1272 1176 743 426 412 206 0 0 195 494 374 282 189 253 32 0 0 0 144 195 358 290 123 142 92 37 45 20 7 43 11 5 18
13 164 399 818 1068 1022 1039 1136 1164 1044 609 483 180 248 218 109 0 0 0 93 124 226 154 146 0 0 0 0 2 2 15 86 236 135 101 65 21 12 14 14 23 38 45
193 184 767 812 648 637 581 593 395 340 188 158 167 154 31 0 0 0 0 0 0 247 54 3 0 0 0 0 0 0 1 63 133 43 70 51 21 26 26 77 55 59 40
127 496 464 403 381 413 402 325 151 133 120 112 71 58 0 1 2 0 0 0 0 0 0 0 0 0 23 0 0 0 109 54 115 21 3 2 6 15 22 26 24 11 25
423 288 285 231 210 138 37 15 58 86 94 72 54 22 5 1 15 8 6 4 3 0 0 2 9 9 3 17 35 33 19 9 14 20 17 6 6 10 17 21 17 11 19
298 162 109 30 1 9 12 0 0 0 0 0 0 3 0 0 0 0 0 0 0 0 24 48 14 20 18 23 16 8 13 12 8 12 19 14 11 7 10 14 21 18 27
209 36 5 1 53 33 9 0 0 0 0 0 0 0 0 0 0 0 0 0 0 0 3 9 9 15 22 21 17 13 14 18 18 16 18 18 10 14 2 0 20 14 1
144 23 87 81 42 16 4 0 0 2 2 0 0 0 0 0 0 0 0 1 1 1 1 1 4 8 6 7 9 12 15 5 13 12 14 15 4 13 2 1 0 0 0
15 12 34 57 51 40 19 3 3 3 1 0 0 0 0 0 0 0 0 13 2 2 0 0 12 11 9 7 0 2 5 3 2 1 8 14 18 2 2 1 1 0 8
69 30 39 58 45 13 3 3 3 3 5 7 4 0 1 1 2 0 3 29 14 0 0 4 12 9 1 3 12 12 13 12 22 29 23 16 0 8 0 0 1 0 0
66 39 44 59 12 11 3 5 7 4 3 12 3 0 0 1 2 0 2 1 0 0 13 9 11 9 19 30 32 4 11 19 7 1 0 0 0 7 28 12 38 30 37
49 63 47 81 18 4 4 3 0 2 5 1 0 0 0 1 4 4 4 5 4 3 1 1 0 0 0 4 2 11 16 2 0 4 10 11 22 4 37 78 105 88 109
63 52 55 10 2 1 1 0 2 1 1 3 3 3 1 3 5 3 4 3 1 0 0 0 0 0 0 0 0 0 1 2 10 28 72 98 84 48 6 1 2 0 0
32 22 2 3 2 2 1 0 1 2 2 1 1 3 6 2 2 2 0 0 0 0 0 0 0 0 0 0 0 0 0 0 0 0 2 0 0 0 0 0 0 0 0
1 3 3 2 2 3 2 2 1 1 1 0 1 0 1 0 0 0 0 0 0 0 0 0 0 0 0 0 0 0 0 0 0 0 0 0 0 0 0 0 0 0 0
3 2 2 2 2 1 2 1 0 0 0 0 0 0 0 0 0 0 0 0 0 0 0 0 0 0 0 0 0 0 0 0 0 0 0 0 0 0 0 0 0 0 0
CIN
0 0 0 0 0 0 -287 -226 -238 -200 -219 -222 -194 -188 -169 -150 -138 -120 -78 -41 -32 -2 -2 -1 -3 -32 -8 -2 -2 -1 -2 -1 -1 -2 -8 -29 -7 -1 0 0 -5 0 -32
0 0 0 0 0 0 -178 -202 -218 -210 -205 -190 -173 -159 -148 -133 -107 -88 -51 -16 -2 0 -4 -1 -4 -1 -1 -2 -2 -1 -5 -2 -1 -1 -33 0 -4 -10 -10 -29 0 -2 -1
0 0 0 0 0 -22 -213 -206 -220 -216 -205 -176 -137 -132 -111 -110 -88 -53 -20 -1 -1 -2 -7 -2 -2 0 -1 -1 -1 -15 -1 -1 -2 -2 -2 0 0 -25 0 0 -1 -4 -6
-19 0 0 0 0 -215 -155 -175 -202 -206 -173 -152 -136 -115 -99 -89 -56 -22 -1 -1 -12 -1 -1 -12 -3 -1 -2 -1 -6 -2 -1 -1 -1 -1 -1 -10 0 -2 -5 0 -2 -1 -29
-23 -21 0 0 0 -118 -104 -164 -207 -194 -164 -144 -120 -114 -84 -47 -31 -8 -6 -14 -8 -1 -30 -24 -1 -2 -5 -2 -1 -1 -1 -2 -1 -2 -5 0 0 0 -13 0 -1 -3 -2
-50 -30 0 0 -85 -77 -101 -181 -197 -172 -147 -114 -104 -70 -38 -34 -49 -68 -22 -5 -1 -1 -1 -1 -1 -30 -30 -25 -51 -8 -2 -1 -1 -1 -29 -4 0 -3 -13 -12 -20 -4 0
-72 -67 -26 -33 -35 -10 -81 -152 -154 -123 -97 -78 -46 -29 -20 -21 -116 -68 -18 -1 -2 -1 -1 -1 -1 -4 -17 -18 0 0 -3 -37 -16 -1 -3 -27 -46 -20 -3 -10 -11 -1 0
-49 -70 -40 -47 -15 -3 -50 -75 -56 -45 -43 -41 -30 -9 0 -87 -141 -92 -50 -3 -9 -10 -5 -1 -2 -2 -1 -2 -20 -26 -15 -22 -14 -1 -1 -2 -22 0 0 -11 0 -7 -3
-80 -34 -30 -32 -7 -5 -31 -20 -33 -40 -38 -22 -3 -1 -30 -215 -281 -178 -166 -8 -1 -1 -1 -1 -1 -2 -19 -33 -1 -3 -1 -3 0 0 -35 -30 -53 -37 -2 -1 0 0 0
-135 -36 -23 -9 -2 -12 -3 -20 -18 -40 -37 -9 0 -3 -57 -181 0 0 -120 -6 -1 -2 0 -1 -36 -6 -71 0 -2 -1 0 0 -19 -38 -38 -3 -3 -57 -8 -1 -1 -1 0
-89 -14 -86 -1 -1 -7 -7 -23 -59 -63 -32 -5 -32 -93 -93 -144 0 0 -85 -1 -2 -11 -10 -6 -9 0 0 0 -28 -9 -1 -2 -5 -3 -4 -9 -2 -15 -1 -3 -2 -2 -1
-86 -23 -26 -1 -1 -21 -67 -83 -48 -50 -75 -71 -158 -89 -94 -152 0 0 0 -74 -35 -1 -3 -4 0 0 0 0 -21 -63 -55 -22 -2 -2 -1 -1 -1 -1 0 -5 -6 -1 -1
-9 -43 0 -3 -35 -71 -103 -116 -109 -111 -148 -114 -62 -76 -189 0 0 0 0 0 0 -2 -52 -7 0 0 0 0 0 -95 -98 -15 -3 -4 0 0 -1 -1 0 -1 0 0 0
-48 -3 -27 -60 -55 -58 -82 -111 -136 -108 -84 -54 -70 -79 0 -1 -1 -1 0 0 0 0 0 0 0 0 -6 0 0 0 -11 -12 -1 -14 0 0 -1 -1 -1 -1 0 -1 -1
-1 -26 -49 -79 -74 -95 -82 -185 -97 -58 -36 -41 -61 -88 -127 -1 -88 -49 -1 0 -1 0 0 -30 -21 -27 0 -1 -1 -1 -8 -1 -1 -15 0 -2 -1 -1 0 0 0 -3 0
-3 -35 -73 -154 0 -147 -148 0 0 0 0 0 0 -27 0 0 0 0 0 0 0 0 -12 -3 -25 -14 -7 -1 0 0 -1 -1 -1 -1 0 0 0 -1 -1 0 -1 0 0
-11 -98 -2 0 -40 -63 -112 0 0 0 0 0 0 0 0 0 0 0 0 0 0 0 -33 -35 -44 -26 0 0 0 -1 0 0 0 -1 0 0 -2 0 -15 0 0 -2 0
-27 -39 -8 -6 -21 -2 -5 0 0 0 0 0 0 0 0 0 0 0 0 0 0 0 0 0 -21 -41 -2 -1 0 0 0 -4 -1 0 0 0 -2 0 0 0 0 0 -4
-36 -15 -11 -9 -2 -2 -2 0 0 0 0 0 0 0 0 0 0 0 0 -1 0 0 0 0 -24 -53 -55 -1 -1 -1 -1 0 -2 -6 -3 -1 -1 0 0 0 0 0 -1
-1 -17 -3 -4 -1 -4 0 0 0 0 0 0 0 0 0 0 0 0 -12 0 -4 0 0 -1 0 -8 -14 -1 -1 -1 -1 -2 -1 -1 -1 -1 -1 -12 0 0 -1 0 0
-6 -32 -12 -2 -28 -20 0 0 0 0 0 0 0 0 0 0 0 0 0 0 0 0 0 0 -36 0 0 0 -1 -1 -1 -1 0 0 0 0 0 -8 -7 -3 -4 -1 -2
-19 -8 -2 -1 -13 0 0 0 0 -1 0 0 0 0 0 0 0 0 0 0 0 0 0 0 0 0 -1 0 0 -1 -1 -1 0 -26 -2 -3 -7 -4 -2 -5 -1 -2 -6
-2 -2 -2 -7 -1 -1 0 0 -1 0 0 0 0 0 0 0 0 0 0 0 0 0 0 0 0 0 0 0 0 0 0 -21 -10 -9 -1 -1 -4 -19 -20 -40 -31 0 0
-25 -31 -4 0 0 0 0 -1 0 0 0 0 0 0 0 0 0 0 0 0 0 0 0 0 0 0 0 0 0 0 0 0 0 0 -6 0 0 0 0 0 0 0 0
0 0 0 0 0 0 0 0 0 0 0 0 0 0 0 0 0 0 0 0 0 0 0 0 0 0 0 0 0 0 0 0 0 0 0 0 0 0 0 0 0 0 0
0 0 0 0 0 0 0 0 0 0 0 0 0 0 0 0 0 0 0 0 0 0 0 0 0 0 0 0 0 0 0 0 0 0 0 0 0 0 0 0 0 0 0
Wind_Speed
43 43 45 45 43 41 40 39 36 35 32 29 25 20 18 15 13 15 16 13 11 10 9 9 8 8 7 6 6 7 9 11 13 12 15 13 13 12 11 12 10 9 7
43 44 45 45 45 43 40 36 31 28 25 24 20 17 14 13 13 14 14 11 9 9 9 7 7 6 7 7 7 9 10 11 12 12 13 11 12 12 11 8 8 11 11
45 46 46 45 44 45 41 36 30 25 22 19 17 15 13 13 13 13 11 9 9 8 7 6 5 5 6 7 7 9 8 9 11 12 12 11 12 11 14 11 5 11 11
44 45 46 45 44 44 42 38 32 28 25 21 17 15 13 13 12 11 9 9 8 7 7 6 5 5 5 6 6 6 8 9 10 11 11 10 8 10 10 9 6 6 5
44 44 45 45 44 43 42 38 32 27 23 19 15 13 11 10 11 10 9 9 7 7 6 4 5 5 7 4 4 4 7 6 9 10 10 8 7 6 8 7 7 6 9
44 45 44 45 44 43 40 35 28 23 18 15 14 12 10 10 8 8 8 7 6 5 3 4 5 6 4 4 7 6 7 7 8 9 7 6 6 4 5 6 6 6 5
44 45 45 45 45 42 36 31 23 19 16 14 11 10 9 9 7 7 6 4 3 3 4 4 3 1 0 1 3 6 8 8 13 12 9 5 6 4 4 9 8 4 6
44 45 44 44 44 39 33 26 20 17 14 11 10 9 7 9 6 6 4 3 5 6 6 3 1 1 2 1 2 2 4 6 9 11 7 6 9 11 5 6 4 8 9
43 43 43 42 43 35 29 23 19 15 12 9 8 7 6 6 7 6 3 3 5 6 6 4 2 2 3 1 1 1 2 6 10 11 9 7 7 6 4 3 3 4 6
41 41 40 39 38 30 26 21 17 13 10 8 6 6 6 7 6 4 4 4 6 6 7 6 8 7 4 1 1 1 1 3 5 5 6 7 6 5 6 5 6 4 5
40 38 38 39 33 30 23 19 15 11 9 7 7 6 6 5 3 3 6 7 5 6 6 6 7 6 3 1 4 2 5 3 4 3 4 6 5 4 7 5 6 6 7
39 38 38 32 28 24 20 16 13 11 10 10 9 5 3 3 3 4 6 9 5 4 5 6 8 5 4 3 2 2 7 13 5 4 6 4 5 4 5 6 4 6 6
38 38 32 26 25 21 18 14 13 13 12 10 8 5 3 2 4 2 3 3 5 5 6 6 6 7 7 5 7 8 8 10 10 9 9 8 7 6 7 6 6 9 12
37 28 26 25 21 18 16 15 15 13 11 7 6 4 2 2 1 2 3 3 4 6 6 6 7 7 6 6 8 10 5 5 12 8 7 7 7 7 8 7 6 5 7
27 26 23 21 19 16 15 16 15 14 9 5 4 4 4 4 3 3 4 4 5 6 6 6 8 7 8 7 3 5 9 9 9 8 4 3 6 7 9 9 9 10 9
26 23 22 20 17 17 16 13 8 7 4 3 2 3 4 4 4 2 2 5 7 9 4 6 7 7 6 4 3 8 14 11 10 11 8 8 7 6 8 8 8 6 7
23 19 19 21 20 20 15 12 10 5 3 2 2 3 3 5 4 3 4 6 4 3 1 6 3 2 2 4 3 8 15 16 15 16 13 9 7 9 7 8 7 8 10
20 20 17 30 20 13 12 9 9 8 6 2 1 3 6 6 6 7 7 4 6 8 5 1 1 6 6 9 12 14 15 15 15 12 9 7 6 6 7 8 8 6 7
20 21 19 13 13 11 10 9 8 7 7 5 3 1 3 5 6 5 5 7 9 7 6 8 3 4 9 14 14 13 11 10 9 8 7 6 7 8 7 7 8 8 10
25 22 18 13 11 10 10 10 9 9 7 6 2 2 1 1 4 5 8 2 3 6 7 12 5 4 9 17 16 12 6 7 8 10 8 9 8 8 8 8 8 8 8
18 18 14 11 11 11 10 10 8 5 5 4 6 9 5 4 5 4 2 3 4 6 6 5 6 8 12 9 8 9 11 9 6 7 7 8 9 9 9 9 10 10 9
16 13 10 10 10 10 10 9 9 5 5 5 4 3 3 3 2 2 2 3 4 5 6 5 5 7 8 8 9 9 7 7 8 9 11 12 9 10 11 9 13 15 16
15 9 9 10 10 11 12 11 7 6 8 6 6 5 4 3 4 4 3 0 2 2 3 3 4 5 7 7 8 7 7 8 9 10 9 10 10 11 13 14 16 17 19
12 10 10 11 12 12 11 10 7 11 9 8 6 5 4 3 5 4 4 3 2 2 2 3 4 4 5 6 7 8 8 8 8 9 10 12 12 13 14 15 16 17 18
13 12 12 12 11 10 9 9 9 10 9 8 6 4 4 5 6 3 3 5 6 6 7 6 7 8 9 10 10 10 10 11 12 13 14 14 14 15 16 17 18 19 21
8 9 10 10 10 10 9 9 10 10 9 7 5 4 3 2 2 3 3 5 7 8 8 9 10 10 10 10 11 12 13 13 14 15 15 15 16 17 18 19 19 20 21
Wind_Direction
274 271 268 266 267 267 267 269 269 268 265 266 269 268 264 258 266 280 290 297 297 295 298 298 299 309 311 318 328 334 334 337 335 346 349 357 359 356 360 344 354 338 15
275 270 267 265 263 264 264 267 269 268 266 263 261 259 248 255 266 279 286 289 287 286 291 296 300 306 311 322 332 335 338 340 338 344 355 4 3 359 351 342 329 308 289
272 270 265 263 262 260 261 263 264 264 264 260 255 248 249 257 269 275 279 281 288 287 286 291 295 306 312 327 330 338 341 343 343 350 359 6 2 31 331 315 336 286 288
272 267 262 261 261 258 257 260 260 260 260 257 252 250 254 260 267 269 272 285 285 282 291 288 295 307 318 327 337 344 348 346 349 351 352 9 26 32 10 14 346 47 320
271 266 259 258 259 256 254 255 257 257 256 251 245 248 250 253 261 257 268 277 268 276 277 279 303 316 326 338 351 358 351 0 350 340 346 17 66 27 69 340 353 22 299
268 262 258 256 256 253 250 251 251 250 245 236 236 238 242 256 252 252 264 262 258 267 258 289 317 318 328 332 329 350 347 360 353 337 360 60 92 27 22 62 341 54 29
266 259 253 252 250 248 245 244 241 235 231 228 229 234 243 264 239 245 259 255 257 269 291 298 305 323 325 350 336 336 333 344 324 317 330 30 83 63 326 108 100 358 347
261 253 249 248 244 240 238 234 227 218 218 223 230 235 235 263 223 205 193 267 292 302 304 310 274 318 172 346 7 355 345 329 327 317 348 9 106 114 319 85 308 308 328
254 247 245 245 236 231 228 219 215 213 218 222 220 224 234 204 185 173 205 289 302 306 314 326 325 314 321 310 79 75 358 318 307 307 330 351 29 69 357 12 17 13 356
244 241 242 235 228 222 217 209 208 208 214 217 212 196 189 177 179 182 275 299 300 313 322 335 331 333 343 155 149 116 99 321 316 320 347 5 47 44 76 62 69 35 28
236 238 232 225 218 214 204 204 203 202 201 190 176 165 173 180 201 228 284 297 317 320 334 351 343 340 347 5 309 92 282 316 304 334 347 27 34 46 80 54 62 64 80
231 227 224 212 207 198 196 197 194 184 179 168 166 175 218 250 263 269 288 302 323 348 351 355 355 23 54 47 29 10 289 262 290 302 308 356 43 23 354 83 27 8 309
218 217 207 196 195 195 190 187 187 176 169 167 182 209 230 253 274 300 318 343 342 358 351 356 59 62 57 47 77 84 90 275 273 284 287 306 316 325 316 330 333 319 306
208 199 190 186 190 192 191 183 179 180 176 174 202 196 195 227 149 89 52 19 13 14 53 58 68 62 36 60 79 90 18 301 268 294 300 308 315 322 311 331 346 352 351
192 191 187 183 183 180 186 186 190 206 210 184 194 166 159 139 113 93 84 61 68 80 79 73 80 78 80 76 15 329 288 295 302 309 355 358 315 318 308 315 314 312 327
187 186 185 178 168 163 162 161 192 216 223 220 213 148 272 95 101 60 29 60 90 105 74 78 89 94 84 55 318 279 261 279 287 273 282 288 316 339 326 331 329 337 331
177 174 167 163 170 137 144 166 174 202 143 149 107 83 80 94 82 69 65 90 97 280 353 73 72 59 38 315 337 283 259 257 258 252 269 301 327 321 350 349 1 349 327
170 168 164 174 129 154 165 164 159 159 160 168 313 78 85 81 77 81 82 62 265 259 259 23 329 265 269 266 260 260 259 256 258 276 298 333 5 359 349 341 343 57 88
164 181 179 159 167 154 153 151 145 126 111 108 103 59 67 75 69 58 264 261 242 237 241 253 287 275 259 249 251 263 273 275 287 307 327 350 342 352 9 10 4 360 2
180 180 181 173 156 163 154 140 124 115 112 101 128 194 224 336 272 277 248 241 218 229 228 234 265 281 255 233 239 264 315 67 306 300 335 328 339 357 359 4 7 19 25
174 177 173 172 176 151 140 137 135 145 123 125 211 223 226 222 226 223 207 207 207 215 232 256 261 256 253 274 290 291 274 291 354 2 24 25 58 54 48 56 74 94 60
171 174 164 162 159 156 157 153 186 148 133 158 175 168 147 180 168 176 204 225 234 238 241 261 273 268 274 279 284 283 311 4 40 50 70 82 45 15 59 19 343 333 333
184 156 144 161 170 144 172 183 170 127 119 130 142 150 143 110 84 76 74 158 225 250 267 284 286 280 268 271 257 285 340 321 316 294 345 25 6 349 345 346 342 342 339
186 180 170 162 174 174 173 174 149 114 116 116 139 145 121 117 79 77 58 48 34 10 348 352 354 338 325 305 292 300 321 321 317 330 345 4 6 1 360 358 358 355 355
195 188 182 172 167 153 150 151 131 124 120 114 139 122 126 87 74 81 67 55 54 51 45 31 21 23 21 19 12 7 2 3 12 16 13 12 6 358 355 354 353 350 350
173 173 175 174 172 169 149 139 145 144 145 155 154 132 128 121 90 79 64 60 58 54 50 38 30 25 19 9 8 9 8 6 5 9 12 9 5 2 360 356 354 353 351